This is the latest recevied weather packets stored in our database for station/object N9WHM. If no packets are shown the sender has not sent any weather packets the latest 10 day(s).
| Time | Temp. | Humidity | Pressure | Rain* | Wind** | Luminosity | Snow |
|---|---|---|---|---|---|---|---|
| 1777680746 | 12.78° C | 34% | 1018.7 hPa | 0 mm | - | 84 W/m² | - |
| 1777680443 | 12.78° C | 33% | 1018.7 hPa | 0 mm | - | 95 W/m² | - |
| 1777680141 | 12.78° C | 33% | 1018.7 hPa | 0 mm | - | 108 W/m² | - |
| 1777679836 | 12.78° C | 33% | 1018.7 hPa | 0 mm | - | 114 W/m² | - |
| 1777679532 | 12.78° C | 33% | 1018.7 hPa | 0 mm | - | 127 W/m² | - |
| 1777679228 | 12.78° C | 33% | 1018.7 hPa | 0 mm | - | 140 W/m² | - |
| 1777678926 | 12.78° C | 33% | 1018.7 hPa | 0 mm | - | 152 W/m² | - |
| 1777678623 | 13.33° C | 31% | 1018.8 hPa | 0 mm | - | 164 W/m² | - |
| 1777678320 | 13.33° C | 33% | 1018.7 hPa | 0 mm | - | 175 W/m² | - |
| 1777678016 | 12.78° C | 33% | 1018.5 hPa | 0 mm | - | 188 W/m² | - |
| 1777677714 | 13.33° C | 31% | 1018.8 hPa | 0 mm | - | 198 W/m² | - |
| 1777677411 | 13.33° C | 32% | 1018.6 hPa | 0 mm | - | 212 W/m² | - |
| 1777677109 | 12.78° C | 33% | 1018.7 hPa | 0 mm | - | 143 W/m² | - |
| 1777676807 | 12.78° C | 32% | 1018.7 hPa | 0 mm | - | 238 W/m² | - |
| 1777676505 | 13.33° C | 32% | 1018.7 hPa | 0 mm | - | 258 W/m² | - |
| 1777676203 | 12.78° C | 34% | 1018.7 hPa | 0 mm | - | 271 W/m² | - |
| 1777675899 | 13.33° C | 34% | 1018.5 hPa | 0 mm | - | 151 W/m² | - |
| 1777675596 | 13.89° C | 33% | 1018.4 hPa | 0 mm | - | 301 W/m² | - |
| 1777675293 | 12.78° C | 33% | 1018.6 hPa | 0 mm | - | 318 W/m² | - |
| 1777674989 | 13.33° C | 32% | 1018.6 hPa | 0 mm | - | 331 W/m² | - |
| 1777674687 | 12.78° C | 35% | 1018.5 hPa | 0 mm | - | 352 W/m² | - |
| 1777674388 | 12.78° C | 33% | 1018.6 hPa | 0 mm | - | 258 W/m² | - |
| 1777674080 | 12.78° C | 34% | 1018.5 hPa | 0 mm | - | 391 W/m² | - |
| 1777673776 | 12.78° C | 35% | 1018.5 hPa | 0 mm | - | 397 W/m² | - |
| 1777673474 | 12.78° C | 33% | 1018.6 hPa | 0 mm | - | 414 W/m² | - |
* Rain latest hour (hover to see other rain measurements)
** Current wind speed in m/s (hover to see current wind gust speed)